[[{"header":{"parameterUnit":"m.s-1","parameterCategory":1,"la1":30.2991,"la2":30.254,"lo1":-89.0895,"lo2":-89.0444,"dy":0.0017,"dx":0.0017,"nx":28,"ny":28,"refTime":"2024-04-17T21:00:00:Z","depth":0,"parameterNumber":2,"parameterNumberName":"U-component_of_WINDS"},"data":[0,0,0,0,0,0,0,0,0,0,0,0,0,0,0,0,0,0,0,0,0,0,0,0,0,0,0,0,0,0,0,0,0,0,0,0,0,0,0,0,0,0,0,0,0,0,0,0,0,0,0,0,0,0,0,0,0,0,-0.8106,-0.8106,0,-0.8085,-0.8085,-0.8085,-0.8059,-0.8058,-0.8058,-0.8058,-0.8038,-0.8037,-0.8037,0,0,0,0,0,0,0,0,0,0,0,0,0,-0.8124,-0.8124,-0.8106,-0.8106,-0.8105,-0.8085,-0.8085,-0.8085,-0.8059,-0.8058,-0.8058,-0.8058,-0.8038,-0.8037,-0.8037,0,0,0,0,0,0,0,0,0,0,0,0,0,-0.8111,-0.8124,-0.8106,-0.809,-0.8088,-0.8085,-0.8085,-0.8085,-0.8059,-0.8058,-0.8058,-0.8057,-0.8038,-0.8037,-0.8037,-0.8048,0,0,-0.8037,-0.8036,0,0,0,0,0,0,0,0,-0.8112,-0.8111,-0.8093,-0.8091,-0.8089,-0.8074,-0.8084,-0.8072,-0.8059,-0.807,-0.8058,-0.8057,-0.805,-0.8049,-0.8046,-0.8047,-0.8046,-0.8037,-0.8036,-0.8036,-0.8036,0,0,0,0,0,0,0,-0.8113,-0.8111,-0.8098,-0.8092,-0.809,-0.8084,-0.8082,-0.8082,-0.8064,-0.8069,-0.8067,-0.8065,-0.8049,-0.8047,-0.8046,-0.8046,-0.8037,-0.8036,-0.8036,-0.8036,-0.8055,-0.8056,0,0,0,0,0,0,-0.8116,-0.8112,-0.8098,-0.8097,-0.8099,-0.8085,-0.8082,-0.808,-0.8064,-0.8061,-0.8066,-0.8064,-0.8047,-0.8046,-0.8045,-0.8057,-0.8036,-0.8036,-0.8036,-0.8054,-0.8055,-0.8056,0,0,0,0,0,0,-0.8117,-0.8115,-0.8099,-0.8104,-0.8102,-0.8085,-0.8083,-0.8079,-0.8077,-0.8061,-0.8058,-0.8066,-0.8047,-0.8045,-0.8048,-0.8055,-0.8036,-0.8036,-0.8054,-0.8055,-0.8056,-0.808,0,0,0,0,0,0,-0.8117,-0.8115,-0.8119,-0.8104,-0.8101,-0.8102,-0.8083,-0.8079,-0.8076,-0.8074,-0.8061,-0.8058,-0.8046,-0.8048,-0.8047,-0.8055,-0.8036,-0.8053,-0.8054,-0.8055,-0.8078,-0.8082,-0.8084,0,0,0,0,0,-0.8118,-0.8127,-0.8119,-0.8118,-0.8106,-0.8102,-0.81,-0.8086,-0.8077,-0.8081,-0.8071,-0.8059,-0.8055,-0.8048,-0.8047,-0.8055,-0.8052,-0.8054,-0.8055,-0.8077,-0.8081,-0.8084,0,0,0,0,0,0,-0.8143,-0.8125,-0.8116,-0.8121,-0.8113,-0.8098,-0.8102,-0.8091,-0.8086,-0.8084,-0.8067,-0.8064,-0.8069,-0.8062,-0.8055,-0.8065,-0.8052,-0.8053,-0.8069,-0.8072,-0.8075,-0.8077,-0.8035,0,0,0,0,0,-0.8149,-0.8148,-0.8132,-0.8137,-0.8134,-0.8119,-0.8117,-0.8106,-0.8098,-0.8095,-0.8085,-0.8078,-0.8075,-0.8074,-0.807,-0.8078,-0.8074,-0.8082,-0.8086,-0.8088,-0.8089,-0.8093,-0.8096,-0.8061,-0.8061,-0.8061,0,0,-0.8162,-0.8152,-0.8152,-0.8142,-0.8135,-0.8134,-0.8116,-0.8116,-0.8115,-0.8095,-0.8096,-0.8089,-0.808,-0.8085,-0.8086,-0.8079,-0.8098,-0.809,-0.8092,-0.8092,-0.8095,-0.8098,-0.8101,-0.8062,-0.8061,-0.8061,0,0,-0.8184,-0.8176,-0.818,-0.8173,-0.8163,-0.8152,-0.8154,-0.814,-0.8134,-0.8135,-0.812,-0.8119,-0.8115,-0.8109,-0.8105,-0.8126,-0.8114,-0.8126,-0.8141,-0.8145,-0.8147,-0.815,-0.8157,-0.816,-0.8127,-0.8127,-0.8127,0,-0.8201,-0.8198,-0.8183,-0.8183,-0.818,-0.8162,-0.8165,-0.816,-0.8149,-0.8147,-0.814,-0.8134,-0.8126,-0.8129,-0.8134,-0.8132,-0.8133,-0.8126,-0.8148,-0.815,-0.8152,-0.8159,-0.8162,-0.8128,-0.8128,-0.8128,-0.8128,0,-0.8219,-0.8218,-0.8222,-0.8212,-0.8209,-0.8211,-0.8196,-0.8195,-0.8186,-0.8177,-0.8178,-0.8169,-0.8163,-0.8163,-0.8154,-0.8165,-0.8161,-0.8151,-0.8138,-0.8157,-0.8163,-0.8166,-0.813,-0.813,-0.8129,-0.8129,0,0,-0.8256,-0.8238,-0.8239,-0.8234,-0.8222,-0.8221,-0.8222,-0.8216,-0.8216,-0.8209,-0.821,-0.8207,-0.8198,-0.8194,-0.8184,-0.8187,-0.8204,-0.8177,-0.8176,-0.8182,-0.8216,-0.8223,-0.8226,-0.8197,-0.8197,-0.8197,-0.8216,0,-0.8276,-0.8276,-0.8263,-0.8268,-0.8266,-0.825,-0.8251,-0.8244,-0.8236,-0.8233,-0.8225,-0.8222,-0.8211,-0.8208,-0.8211,-0.8201,-0.821,-0.82,-0.8197,-0.8197,-0.8199,-0.8229,-0.8236,-0.8255,-0.8218,-0.8219,-0.8219,0,-0.8298,-0.8292,-0.8297,-0.8284,-0.8283,-0.8285,-0.8278,-0.8276,-0.8268,-0.8262,-0.8258,-0.8246,-0.8247,-0.8235,-0.8237,-0.823,-0.8228,-0.8224,-0.8224,-0.8223,-0.8209,-0.8228,-0.826,-0.8263,-0.8223,-0.8222,-0.8222,0,-0.8324,-0.8317,-0.8319,-0.8316,-0.8301,-0.8302,-0.8297,-0.8288,-0.8285,-0.828,-0.8278,-0.8273,-0.8271,-0.8267,-0.8255,-0.8247,-0.8258,-0.8245,-0.8253,-0.8253,-0.8255,-0.8255,-0.8287,-0.8256,-0.8255,-0.8255,-0.8255,0,-0.8346,-0.835,-0.833,-0.8332,-0.8335,-0.832,-0.8324,-0.8317,-0.8309,-0.8309,-0.8294,-0.8294,-0.8278,-0.8277,-0.8268,-0.827,-0.8269,-0.8264,-0.8262,-0.8265,-0.8266,-0.8263,-0.8262,-0.8256,-0.8256,-0.8256,-0.8256,0,-0.8375,-0.8363,-0.8363,-0.835,-0.8346,-0.8349,-0.8338,-0.8338,-0.833,-0.8329,-0.8328,-0.8315,-0.8312,-0.83,-0.8295,-0.8288,-0.8294,-0.8289,-0.8297,-0.8295,-0.8304,-0.8303,-0.8335,-0.8338,-0.8305,-0.8305,-0.8305,0,-0.839,-0.8392,-0.8379,-0.8377,-0.8372,-0.837,-0.8367,-0.8353,-0.835,-0.8341,-0.8343,-0.834,-0.8336,-0.8333,-0.8322,-0.8319,-0.8313,-0.8325,-0.8312,-0.8316,-0.8313,-0.8312,-0.8313,-0.8327,-0.8327,-0.8328,-0.8328,0,-0.8418,-0.8412,-0.8408,-0.8402,-0.8399,-0.8394,-0.8388,-0.8388,-0.8372,-0.837,-0.8367,-0.8365,-0.8359,-0.8356,-0.835,-0.8344,-0.8334,-0.8332,-0.8334,-0.8337,-0.8341,-0.8338,-0.8303,-0.8331,-0.8331,-0.8331,-0.833,-0.833,-0.844,-0.8441,-0.8432,-0.8428,-0.8422,-0.8417,-0.8417,-0.8408,-0.8405,-0.8399,-0.8391,-0.8389,-0.8381,-0.8373,-0.8368,-0.8367,-0.836,-0.8363,-0.8363,-0.8364,-0.8366,-0.8342,-0.8366,-0.8366,-0.8365,-0.8365,-0.8365,0,-0.8467,-0.846,-0.8457,-0.8449,-0.8446,-0.8436,-0.8429,-0.8427,-0.8426,-0.8419,-0.8416,-0.8412,-0.8409,-0.8399,-0.8395,-0.8396,-0.8391,-0.8395,-0.8394,-0.8393,-0.8372,-0.837,-0.8399,-0.8399,-0.8399,-0.8399,-0.8399,-0.8399,-0.848,-0.8481,-0.8474,-0.8472,-0.8465,-0.8463,-0.846,-0.8455,-0.845,-0.8447,-0.8444,-0.8437,-0.8429,-0.8424,-0.8421,-0.8418,-0.8417,-0.8423,-0.8418,-0.8398,-0.8395,-0.8392,-0.839,-0.8423,-0.8423,-0.844,-0.844,-0.844]},{"header":{"parameterUnit":"m.s-1","parameterCategory":1,"la1":30.2991,"la2":30.254,"lo1":-89.0895,"lo2":-89.0444,"dy":0.0017,"dx":0.0017,"nx":28,"ny":28,"refTime":"2024-04-17T21:00:00:Z","depth":0,"parameterNumber":3,"parameterNumberName":"V-component_of_WINDS"},"data":[0,0,0,0,0,0,0,0,0,0,0,0,0,0,0,0,0,0,0,0,0,0,0,0,0,0,0,0,0,0,0,0,0,0,0,0,0,0,0,0,0,0,0,0,0,0,0,0,0,0,0,0,0,0,0,0,0,0,1.4877,1.4878,0,1.4893,1.4893,1.4893,1.4883,1.4882,1.4882,1.4882,1.4897,1.4898,1.4898,0,0,0,0,0,0,0,0,0,0,0,0,0,1.4837,1.4838,1.4877,1.4878,1.4878,1.4893,1.4893,1.4893,1.4883,1.4882,1.4882,1.4881,1.4896,1.4897,1.4898,0,0,0,0,0,0,0,0,0,0,0,0,0,1.4854,1.4839,1.4877,1.4874,1.4874,1.4893,1.4893,1.4893,1.4883,1.4882,1.4882,1.4881,1.4896,1.4897,1.4899,1.4921,0,0,1.4902,1.4903,0,0,0,0,0,0,0,0,1.4853,1.4856,1.4875,1.4875,1.4875,1.4885,1.4885,1.4903,1.4883,1.488,1.4882,1.4881,1.4893,1.4895,1.4899,1.4921,1.4922,1.4903,1.4903,1.4904,1.4904,0,0,0,0,0,0,0,1.4852,1.4855,1.4884,1.4875,1.4875,1.4872,1.4874,1.4888,1.489,1.488,1.4879,1.4881,1.4893,1.4898,1.49,1.4922,1.4903,1.4904,1.4904,1.4905,1.4962,1.4963,0,0,0,0,0,0,1.4851,1.4854,1.4883,1.4884,1.4862,1.4873,1.4875,1.4883,1.489,1.4891,1.4882,1.4881,1.4896,1.4898,1.49,1.4926,1.4904,1.4905,1.4906,1.4961,1.4962,1.4963,0,0,0,0,0,0,1.485,1.4854,1.4882,1.4869,1.4872,1.4875,1.4883,1.4883,1.4888,1.4892,1.4892,1.4887,1.4896,1.4898,1.4915,1.4926,1.4906,1.4907,1.496,1.4962,1.4963,1.4978,0,0,0,0,0,0,1.4849,1.4854,1.4863,1.4869,1.4873,1.4898,1.4884,1.4884,1.489,1.4889,1.4896,1.4897,1.4895,1.4914,1.4917,1.4928,1.4908,1.4959,1.4961,1.4962,1.4976,1.4979,1.4982,0,0,0,0,0,1.4848,1.4866,1.4863,1.4867,1.4884,1.4899,1.4901,1.4899,1.4891,1.49,1.4902,1.4896,1.4925,1.4915,1.4919,1.493,1.4959,1.496,1.4962,1.4975,1.4979,1.4982,0,0,0,0,0,0,1.4861,1.4867,1.4864,1.4885,1.4891,1.4897,1.4908,1.4903,1.4912,1.4911,1.4908,1.491,1.4928,1.4931,1.492,1.4951,1.494,1.4943,1.4949,1.4952,1.4955,1.4954,1.4909,0,0,0,0,0,1.4866,1.4878,1.4882,1.49,1.4904,1.4905,1.4912,1.491,1.4916,1.4919,1.4923,1.4929,1.4939,1.4946,1.4956,1.4977,1.4978,1.4986,1.4989,1.4991,1.4993,1.5004,1.5007,1.4969,1.4969,1.4969,0,0,1.4877,1.4882,1.4889,1.4903,1.4908,1.492,1.4908,1.4921,1.4929,1.4921,1.4937,1.494,1.4947,1.4966,1.4974,1.4969,1.5004,1.4993,1.4995,1.4996,1.5006,1.501,1.5013,1.497,1.497,1.4969,0,0,1.4903,1.4908,1.4923,1.4928,1.4936,1.4937,1.494,1.4946,1.4948,1.4964,1.4958,1.4968,1.4986,1.4991,1.4996,1.5023,1.5017,1.5026,1.504,1.505,1.5054,1.5056,1.5065,1.5069,1.5028,1.5028,1.5028,0,1.4916,1.4933,1.4932,1.4945,1.4951,1.4944,1.4959,1.4964,1.4974,1.4978,1.4972,1.4994,1.4998,1.5018,1.5024,1.5028,1.5032,1.5025,1.5053,1.5056,1.5058,1.5067,1.5071,1.5029,1.5029,1.5029,1.5029,0,1.4948,1.4961,1.4972,1.4982,1.4989,1.5003,1.5003,1.501,1.5008,1.5009,1.5025,1.503,1.504,1.5045,1.5042,1.5064,1.506,1.5054,1.5042,1.5063,1.5071,1.5074,1.503,1.503,1.503,1.5029,0,0,1.4983,1.4992,1.4996,1.5,1.5007,1.5017,1.503,1.504,1.5046,1.5053,1.5064,1.5079,1.5073,1.5078,1.5076,1.5085,1.5106,1.5078,1.5078,1.5082,1.5129,1.5133,1.5137,1.5102,1.5103,1.5103,1.5128,0,1.5009,1.5033,1.5032,1.5054,1.5064,1.5058,1.5069,1.5075,1.5076,1.5085,1.5086,1.5097,1.5088,1.5091,1.51,1.5101,1.5115,1.51,1.5112,1.5112,1.511,1.5142,1.5147,1.517,1.5131,1.5132,1.5132,0,1.5043,1.5051,1.5074,1.5079,1.5084,1.5094,1.5103,1.5112,1.5118,1.5118,1.5124,1.512,1.5133,1.5121,1.5139,1.5128,1.5133,1.5135,1.5135,1.5136,1.5123,1.5143,1.5177,1.518,1.5137,1.5137,1.5136,0,1.5066,1.5082,1.5098,1.5102,1.5108,1.5116,1.5119,1.5124,1.513,1.5137,1.5141,1.5149,1.5154,1.5161,1.516,1.5151,1.5177,1.5166,1.5177,1.5177,1.5183,1.5182,1.5218,1.5186,1.5186,1.5186,1.5186,0,1.5095,1.5109,1.5108,1.5118,1.5133,1.5131,1.5147,1.5149,1.5153,1.5163,1.5157,1.5166,1.5164,1.5173,1.5172,1.5186,1.5189,1.5189,1.5188,1.5189,1.5189,1.5192,1.519,1.5187,1.5187,1.5187,1.5187,0,1.5123,1.5123,1.5139,1.5144,1.5145,1.5157,1.516,1.5169,1.517,1.5182,1.5184,1.5185,1.5195,1.5195,1.5206,1.5205,1.5223,1.522,1.5221,1.522,1.5232,1.523,1.527,1.5275,1.5241,1.5241,1.5241,0,1.5141,1.5152,1.5158,1.5164,1.5167,1.5177,1.5183,1.5181,1.5187,1.5194,1.5202,1.5211,1.5219,1.5235,1.5236,1.5245,1.5242,1.5256,1.5244,1.5244,1.5242,1.5241,1.5242,1.5258,1.5258,1.5259,1.5259,0,1.5174,1.5173,1.5182,1.519,1.5197,1.5204,1.521,1.5215,1.5214,1.5221,1.5231,1.5237,1.5248,1.5257,1.5265,1.5268,1.5263,1.5263,1.5266,1.5267,1.5266,1.5266,1.5227,1.5262,1.5261,1.5261,1.5261,1.5261,1.5197,1.5206,1.5211,1.5221,1.5225,1.5231,1.5239,1.524,1.5249,1.5258,1.5256,1.5267,1.5272,1.5282,1.5285,1.5294,1.5289,1.5294,1.5295,1.5296,1.5297,1.5265,1.5295,1.5295,1.5295,1.5295,1.5295,0,1.5229,1.5232,1.5241,1.5249,1.5257,1.5252,1.5258,1.5264,1.5274,1.5279,1.5286,1.5297,1.5306,1.5308,1.5316,1.5323,1.5321,1.5325,1.5324,1.5325,1.5301,1.5297,1.5326,1.5326,1.5326,1.5326,1.5326,1.5326,1.5247,1.5262,1.5261,1.5278,1.528,1.5291,1.5295,1.53,1.5304,1.5317,1.5324,1.5325,1.5328,1.5337,1.5344,1.5345,1.5348,1.5353,1.5352,1.533,1.5327,1.5324,1.532,1.5354,1.5354,1.5375,1.5375,1.5376]}]]